Showing default

OVZON-3, 58698

Orbit data source: Space-Track

OVZON-3, 58698 is a payload satellite owned by Ovzon (SE) in GEO that was launched on Wed, 03 Jan 2024 UTC via an FALCON 9 launch vehicle from the Air Force Eastern Test Range (AFETR). Payload-class satellites include a variety of spacecraft equipped with specific instruments for various scientific and technological missions. These include communications satellites like Starlink; space stations such as the ISS; scientific satellites like the Hubble; Earth observation satellites from companies like Planet Labs, Umbra, and HawkEye 360; GPS; miniature CubeSats for education and research; and military/defense satellites.

Not visible in the next 10 days
Identifier
58698, 2024-003A
Orbit
GEO
Last TLE update
10 hours ago
Origin
Manufacturer
Maxar Space Sol
Mission
Operational Commercial Communications
Bus & Motor
SSL-500, AOCS
Mass
~1,800 kg wet, ~1,500 kg dry
Launch date (UTC)
2024-01-03 (2 years ago)
Launch vehicle
FALCON 9
Launch site
Air Force Eastern Test Range (AFETR)
Object type
Payload
Rocket body
Debris
Shape & HBR
Box + 2 Pan, 13.5 m
Radar Cross Section
21.427 m², Large (>1 m²)

Expand to show TLE details & history

TLE from 10 hours ago
0 OVZON-3
1 58698U 24003A   25198.79211291  .00000058  00000-0  00000-0 0  9995
2 58698   0.0105  53.8932 0000315 259.4712 327.3446  1.00270791  4081
Epoch: 2025-07-17T19:00Z
TLE epoch observation values (Epoch: 2025-07-17T19:00:38.555Z)
Latitude
-0.02194°
Longitude
59.69772°
Altitude
35,785.243 km
Speed
3.075 km/s
True Right ascension
18h 42m 50s
True Declination
0° 01' 19"
Sunlit
Object was in daylight at epoch
Visualization orbit readout
Latitude
0.00866°
Longitude
-154.27729°
Altitude
35,786.862 km
Speed
3.075 km/s
Apparent Right ascension
04h 33m 12s
Apparent Declination
-4° 57' 07"
Sunlit
Object is in daylight
Visualization observer readout
Local Sidereal Time
17:27:39
Azimuth
22.9° NE
Elevation
-52.944°
Doppler factor
1
Orbital elements
Apogee altitude
35,789.272 km
Perigee altitude
35,786.616 km
Semi-major axis
42,166.081 km
Eccentricity
0.00003
Inclination
0.0105°
RAAN
53.8932°
Arg. of periapsis
259.4712°
True anomaly
327.34265°
Mean anomaly
327.3446°
Eccentric anomaly
327.34363°
Mean motion
0.25067 °/min
Orbital period
1,436.16 mins
BSTAR
0
Loading maneuver chart data...
Loading SW <> Apogee altitude chart data...
Loading historical data...
Loading historical data...
Loading historical data...
Loading historical data...
Loading historical data...
Loading historical data...
Loading historical data...
Other satellites on launch #3 in the year 2024 (2024-01-03 UTC)
|